Find Starlink 32414

NORAD ID: 61667 Int'l Des: 2024-193 Owner: SPXS Country: US Constellation: starlink operational
LEOCIRCULAR

Live Position

Loading 3D Globe...

About Starlink 32414

Description loading...

Upcoming Passes

Passes for default location (London). Set your location on the main map for personalized predictions.

Altitude History

Loading altitude history...

Two-Line Element Set

1 61667U 24193G 26139.68590166 .00001432 00000-0 60487-4 0 9996
2 61667 53.1607 121.4380 0001225 77.8483 282.2654 15.30192123 87399
Epoch: May 19, 2026 • Age: 15 hours

Current Status

Altitude 487.8 km
Velocity 7.62 km/s
Sub-Earth Point -36.71°S, 19.14°W
Launch Date Oct 26, 2024
Age 1.5 years
Type internet

Technical Details

Classification Payload
Mass 730.00 kg
Dry Mass 700.00 kg
Total Mass 730.00 kg
Length 0.30 m
Diameter 4.10 m
Span 29.00 m
Shape Box + pan
Manufacturer SPXS
Bus Type Starlink V2M
Phase Status In Orbit
Owner/State SPXS/US

Most Searched